Time,TemperatureF,DewpointF,PressureIn,WindDirection,WindDirectionDegrees,WindSpeedMPH,WindSpeedGustMPH,Humidity,HourlyPrecipIn,Conditions,Clouds,dailyrainin,SoftwareType,DateUTC
2013-02-04 00:02:00,45.2,43.3,30.52,WNW,293,0.0,0.2,93,0.00,,,0.00,WUHU216HW,2013-02-04 08:02:00,
2013-02-04 00:07:00,45.2,43.3,30.51,WNW,293,0.0,0.4,93,0.00,,,0.00,WUHU216HW,2013-02-04 08:07:00,
2013-02-04 00:12:00,45.0,43.1,30.51,WNW,293,0.0,0.4,93,0.00,,,0.00,WUHU216HW,2013-02-04 08:12:00,
2013-02-04 00:17:00,45.0,43.1,30.51,West,270,0.4,0.7,93,0.00,,,0.00,WUHU216HW,2013-02-04 08:17:00,
2013-02-04 00:22:00,45.0,43.1,30.51,WSW,248,1.3,1.3,93,0.00,,,0.00,WUHU216HW,2013-02-04 08:22:00,
2013-02-04 00:27:00,45.0,43.1,30.51,SW,225,0.4,1.3,93,0.00,,,0.00,WUHU216HW,2013-02-04 08:27:00,
2013-02-04 00:32:00,45.0,43.1,30.50,South,180,0.0,0.9,93,0.00,,,0.00,WUHU216HW,2013-02-04 08:32:00,
2013-02-04 00:37:00,45.0,43.1,30.50,South,180,0.0,0.9,93,0.00,,,0.00,WUHU216HW,2013-02-04 08:37:00,
2013-02-04 00:42:00,45.0,43.1,30.50,West,270,1.1,1.1,93,0.00,,,0.00,WUHU216HW,2013-02-04 08:42:00,
2013-02-04 00:47:00,45.0,43.1,30.50,West,270,0.0,1.1,93,0.00,,,0.00,WUHU216HW,2013-02-04 08:47:00,
2013-02-04 00:52:00,45.0,43.1,30.50,West,270,0.0,0.0,93,0.00,,,0.00,WUHU216HW,2013-02-04 08:52:00,
2013-02-04 00:57:00,45.0,43.1,30.50,West,270,0.0,0.0,93,0.00,,,0.00,WUHU216HW,2013-02-04 08:57:00,
2013-02-04 01:02:00,45.0,43.1,30.51,West,270,0.4,0.4,93,0.00,,,0.00,WUHU216HW,2013-02-04 09:02:00,
2013-02-04 01:07:00,45.0,43.1,30.51,WSW,248,0.0,1.1,93,0.00,,,0.00,WUHU216HW,2013-02-04 09:07:00,
2013-02-04 01:12:00,45.0,43.1,30.51,SSE,158,0.0,1.1,93,0.00,,,0.00,WUHU216HW,2013-02-04 09:12:00,
2013-02-04 01:17:00,45.0,43.1,30.51,West,270,0.2,1.1,93,0.00,,,0.00,WUHU216HW,2013-02-04 09:17:00,
2013-02-04 01:22:00,45.0,43.1,30.51,WNW,293,0.2,1.1,93,0.00,,,0.00,WUHU216HW,2013-02-04 09:22:00,
2013-02-04 01:27:00,45.0,43.1,30.51,SSW,203,0.0,1.6,93,0.00,,,0.00,WUHU216HW,2013-02-04 09:27:00,
2013-02-04 01:32:00,45.0,43.1,30.51,SSW,203,0.0,1.6,93,0.00,,,0.00,WUHU216HW,2013-02-04 09:32:00,
2013-02-04 01:37:00,45.0,43.1,30.51,SSE,158,0.4,3.4,93,0.00,,,0.00,WUHU216HW,2013-02-04 09:37:00,
2013-02-04 01:42:00,45.0,43.1,30.50,SSW,203,0.0,3.4,93,0.00,,,0.00,WUHU216HW,2013-02-04 09:42:00,
2013-02-04 01:47:00,45.0,43.1,30.51,South,180,0.0,0.4,93,0.00,,,0.00,WUHU216HW,2013-02-04 09:47:00,
2013-02-04 01:52:00,45.0,43.1,30.51,South,180,0.0,0.4,93,0.00,,,0.00,WUHU216HW,2013-02-04 09:52:00,
2013-02-04 01:57:00,45.0,43.1,30.51,SSE,158,0.2,1.1,93,0.00,,,0.00,WUHU216HW,2013-02-04 09:57:00,
2013-02-04 02:02:00,45.0,43.1,30.50,SSW,203,0.0,1.8,93,0.00,,,0.00,WUHU216HW,2013-02-04 10:02:00,
2013-02-04 02:07:00,45.0,43.1,30.50,SW,225,0.0,1.8,93,0.00,,,0.00,WUHU216HW,2013-02-04 10:07:00,
2013-02-04 02:12:00,45.0,43.1,30.50,SW,225,0.0,0.9,93,0.00,,,0.00,WUHU216HW,2013-02-04 10:12:00,
2013-02-04 02:17:00,44.8,42.9,30.50,SW,225,0.0,0.9,93,0.00,,,0.00,WUHU216HW,2013-02-04 10:17:00,
2013-02-04 02:22:00,44.8,42.9,30.50,SW,225,0.2,0.4,93,0.00,,,0.00,WUHU216HW,2013-02-04 10:22:00,
2013-02-04 02:27:00,44.8,42.9,30.50,SSW,203,0.0,0.9,93,0.00,,,0.00,WUHU216HW,2013-02-04 10:27:00,
2013-02-04 02:32:00,44.8,42.9,30.50,WSW,248,0.2,0.9,93,0.00,,,0.00,WUHU216HW,2013-02-04 10:32:00,
2013-02-04 02:37:00,44.8,42.9,30.50,WSW,248,0.0,0.2,93,0.00,,,0.00,WUHU216HW,2013-02-04 10:37:00,
2013-02-04 02:42:00,44.8,42.9,30.50,West,270,0.0,0.4,93,0.00,,,0.00,WUHU216HW,2013-02-04 10:42:00,
2013-02-04 02:47:00,44.8,42.9,30.50,WNW,293,0.0,0.4,93,0.00,,,0.00,WUHU216HW,2013-02-04 10:47:00,
2013-02-04 02:52:00,44.8,42.9,30.50,WNW,293,0.0,0.4,93,0.00,,,0.00,WUHU216HW,2013-02-04 10:52:00,
2013-02-04 02:57:00,44.8,42.9,30.50,WNW,293,0.0,0.0,93,0.00,,,0.00,WUHU216HW,2013-02-04 10:57:00,
2013-02-04 03:02:00,44.8,42.9,30.50,South,180,0.7,0.7,93,0.00,,,0.00,WUHU216HW,2013-02-04 11:02:00,
2013-02-04 03:07:00,44.6,42.8,30.50,South,180,0.0,0.7,93,0.00,,,0.00,WUHU216HW,2013-02-04 11:07:00,
2013-02-04 03:12:00,44.6,42.8,30.50,SSW,203,0.0,1.1,93,0.00,,,0.00,WUHU216HW,2013-02-04 11:12:00,
2013-02-04 03:17:00,44.6,42.8,30.50,SSW,203,0.0,1.1,93,0.00,,,0.00,WUHU216HW,2013-02-04 11:17:00,
2013-02-04 03:22:00,44.6,42.8,30.50,SSW,203,1.1,1.1,93,0.00,,,0.00,WUHU216HW,2013-02-04 11:22:00,
2013-02-04 03:27:00,44.6,42.8,30.50,SSW,203,0.0,1.1,93,0.00,,,0.00,WUHU216HW,2013-02-04 11:27:00,
2013-02-04 03:32:00,44.6,42.5,30.50,West,270,0.4,0.4,92,0.00,,,0.00,WUHU216HW,2013-02-04 11:32:00,
2013-02-04 03:37:00,44.6,42.5,30.50,South,180,0.0,0.4,92,0.00,,,0.00,WUHU216HW,2013-02-04 11:37:00,
2013-02-04 03:42:00,44.6,42.5,30.50,SE,135,0.0,0.4,92,0.00,,,0.00,WUHU216HW,2013-02-04 11:42:00,
2013-02-04 03:47:00,44.6,42.5,30.50,SSE,158,0.0,0.4,92,0.00,,,0.00,WUHU216HW,2013-02-04 11:47:00,
2013-02-04 03:52:00,44.6,42.5,30.50,NNW,338,0.0,0.2,92,0.00,,,0.00,WUHU216HW,2013-02-04 11:52:00,
2013-02-04 03:57:00,44.6,42.5,30.50,NW,315,0.0,0.2,92,0.00,,,0.00,WUHU216HW,2013-02-04 11:57:00,
2013-02-04 04:02:00,44.6,42.5,30.50,South,180,1.8,1.8,92,0.00,,,0.00,WUHU216HW,2013-02-04 12:02:00,
2013-02-04 04:07:00,44.6,42.5,30.50,South,180,0.4,1.8,92,0.00,,,0.00,WUHU216HW,2013-02-04 12:07:00,
2013-02-04 04:12:00,44.6,42.5,30.50,South,180,0.2,0.9,92,0.00,,,0.00,WUHU216HW,2013-02-04 12:12:00,
2013-02-04 04:17:00,44.6,42.5,30.49,SW,225,0.0,2.2,92,0.00,,,0.00,WUHU216HW,2013-02-04 12:17:00,
2013-02-04 04:22:00,44.6,42.5,30.48,SE,135,0.0,2.2,92,0.00,,,0.00,WUHU216HW,2013-02-04 12:22:00,
2013-02-04 04:27:00,44.6,42.5,30.48,South,180,0.4,0.4,92,0.00,,,0.00,WUHU216HW,2013-02-04 12:27:00,
2013-02-04 04:32:00,44.6,42.5,30.48,SW,225,0.0,1.1,92,0.00,,,0.00,WUHU216HW,2013-02-04 12:32:00,
2013-02-04 04:37:00,44.6,42.5,30.48,SW,225,0.0,1.1,92,0.00,,,0.00,WUHU216HW,2013-02-04 12:37:00,
2013-02-04 04:42:00,44.5,42.3,30.48,SSE,158,0.4,1.1,92,0.00,,,0.00,WUHU216HW,2013-02-04 12:42:00,
2013-02-04 04:47:00,44.6,42.5,30.48,SSW,203,0.4,1.8,92,0.00,,,0.00,WUHU216HW,2013-02-04 12:47:00,
2013-02-04 04:52:00,44.6,42.5,30.48,West,270,0.2,1.8,92,0.00,,,0.00,WUHU216HW,2013-02-04 12:52:00,
2013-02-04 04:57:00,44.6,42.5,30.48,SW,225,0.4,1.3,92,0.00,,,0.00,WUHU216HW,2013-02-04 12:57:00,
2013-02-04 05:02:00,44.6,42.2,30.47,WNW,293,0.0,1.6,91,0.00,,,0.00,WUHU216HW,2013-02-04 13:02:00,
2013-02-04 05:07:00,44.6,42.5,30.48,WSW,248,0.0,1.6,92,0.00,,,0.00,WUHU216HW,2013-02-04 13:07:00,
2013-02-04 05:12:00,44.5,42.3,30.48,West,270,0.0,1.1,92,0.00,,,0.00,WUHU216HW,2013-02-04 13:12:00,
2013-02-04 05:17:00,44.5,42.3,30.48,West,270,0.0,1.1,92,0.00,,,0.00,WUHU216HW,2013-02-04 13:17:00,
2013-02-04 05:22:00,44.5,42.3,30.48,West,270,0.0,0.2,92,0.00,,,0.00,WUHU216HW,2013-02-04 13:22:00,
2013-02-04 05:27:00,44.5,42.3,30.48,WNW,293,0.0,0.2,92,0.00,,,0.00,WUHU216HW,2013-02-04 13:27:00,
2013-02-04 05:32:00,44.5,42.3,30.48,West,270,0.0,0.0,92,0.00,,,0.00,WUHU216HW,2013-02-04 13:32:00,
2013-02-04 05:37:00,44.5,42.3,30.48,West,270,0.0,0.0,92,0.00,,,0.00,WUHU216HW,2013-02-04 13:37:00,
2013-02-04 05:42:00,44.5,42.3,30.47,West,270,0.0,0.4,92,0.00,,,0.00,WUHU216HW,2013-02-04 13:42:00,
2013-02-04 05:47:00,44.5,42.3,30.48,SW,225,0.2,0.9,92,0.00,,,0.00,WUHU216HW,2013-02-04 13:47:00,
2013-02-04 05:52:00,44.5,42.3,30.48,SSW,203,0.0,2.5,92,0.00,,,0.00,WUHU216HW,2013-02-04 13:52:00,
2013-02-04 05:57:00,44.5,42.3,30.48,SSW,203,0.0,2.5,92,0.00,,,0.00,WUHU216HW,2013-02-04 13:57:00,
2013-02-04 06:02:00,44.5,42.3,30.48,SSW,203,0.0,0.0,92,0.00,,,0.00,WUHU216HW,2013-02-04 14:02:00,
2013-02-04 06:07:00,44.3,42.1,30.48,SSW,203,0.0,0.0,92,0.00,,,0.00,WUHU216HW,2013-02-04 14:07:00,
2013-02-04 06:12:00,44.3,42.1,30.48,SSW,203,0.0,0.0,92,0.00,,,0.00,WUHU216HW,2013-02-04 14:12:00,
2013-02-04 06:17:00,44.5,42.3,30.48,SSW,203,0.0,0.0,92,0.00,,,0.00,WUHU216HW,2013-02-04 14:17:00,
2013-02-04 06:22:00,44.5,42.3,30.47,SSW,203,0.0,0.0,92,0.00,,,0.00,WUHU216HW,2013-02-04 14:22:00,
2013-02-04 06:27:00,44.5,42.3,30.47,SSW,203,0.0,0.4,92,0.00,,,0.00,WUHU216HW,2013-02-04 14:27:00,
2013-02-04 06:32:00,44.5,42.3,30.47,SSW,203,0.0,0.4,92,0.00,,,0.00,WUHU216HW,2013-02-04 14:32:00,
2013-02-04 06:37:00,44.5,42.3,30.47,SSW,203,0.0,0.0,92,0.00,,,0.00,WUHU216HW,2013-02-04 14:37:00,
2013-02-04 06:42:00,44.5,42.3,30.47,SSW,203,0.0,0.0,92,0.00,,,0.00,WUHU216HW,2013-02-04 14:42:00,
2013-02-04 06:47:00,44.5,42.3,30.47,SSW,203,0.0,0.0,92,0.00,,,0.00,WUHU216HW,2013-02-04 14:47:00,
2013-02-04 06:52:00,44.5,42.3,30.46,SSW,203,0.0,0.0,92,0.00,,,0.00,WUHU216HW,2013-02-04 14:52:00,
2013-02-04 06:57:00,44.3,42.1,30.46,SSW,203,0.0,0.0,92,0.00,,,0.00,WUHU216HW,2013-02-04 14:57:00,
2013-02-04 07:02:00,44.3,42.1,30.46,SSW,203,0.0,0.0,92,0.00,,,0.00,WUHU216HW,2013-02-04 15:02:00,
2013-02-04 07:07:00,44.3,42.1,30.46,SW,225,0.0,0.0,92,0.00,,,0.00,WUHU216HW,2013-02-04 15:07:00,
2013-02-04 07:12:00,44.3,42.1,30.46,SW,225,0.0,0.0,92,0.00,,,0.00,WUHU216HW,2013-02-04 15:12:00,
2013-02-04 07:17:00,44.3,42.1,30.46,SW,225,0.0,0.0,92,0.00,,,0.00,WUHU216HW,2013-02-04 15:17:00,
2013-02-04 07:22:00,44.3,42.1,30.47,SW,225,0.0,0.0,92,0.00,,,0.00,WUHU216HW,2013-02-04 15:22:00,
2013-02-04 07:27:00,44.3,42.1,30.47,SW,225,0.0,0.0,92,0.00,,,0.00,WUHU216HW,2013-02-04 15:27:00,
2013-02-04 07:32:00,44.3,42.1,30.47,SW,225,0.0,0.0,92,0.00,,,0.00,WUHU216HW,2013-02-04 15:32:00,
2013-02-04 07:37:00,44.3,42.1,30.48,SW,225,0.0,0.0,92,0.00,,,0.00,WUHU216HW,2013-02-04 15:37:00,
2013-02-04 07:42:00,44.3,42.1,30.48,SW,225,0.0,0.0,92,0.00,,,0.00,WUHU216HW,2013-02-04 15:42:00,
2013-02-04 07:47:00,44.3,42.1,30.47,SW,225,0.0,0.0,92,0.00,,,0.00,WUHU216HW,2013-02-04 15:47:00,
2013-02-04 07:52:00,44.3,42.1,30.48,SW,225,0.0,0.0,92,0.00,,,0.00,WUHU216HW,2013-02-04 15:52:00,
2013-02-04 07:57:00,44.3,42.1,30.47,SW,225,0.0,0.0,92,0.00,,,0.00,WUHU216HW,2013-02-04 15:57:00,
2013-02-04 08:02:00,44.3,42.1,30.47,SW,225,0.4,0.4,92,0.00,,,0.00,WUHU216HW,2013-02-04 16:02:00,
2013-02-04 08:07:00,44.3,42.1,30.47,SW,225,0.0,0.4,92,0.00,,,0.00,WUHU216HW,2013-02-04 16:07:00,
2013-02-04 08:12:00,44.3,42.1,30.47,West,270,0.0,0.0,92,0.00,,,0.00,WUHU216HW,2013-02-04 16:12:00,
2013-02-04 08:17:00,44.3,42.1,30.48,West,270,0.0,0.0,92,0.00,,,0.00,WUHU216HW,2013-02-04 16:17:00,
2013-02-04 08:22:00,44.3,42.1,30.48,West,270,0.0,0.0,92,0.00,,,0.00,WUHU216HW,2013-02-04 16:22:00,
2013-02-04 08:27:00,44.5,42.3,30.48,West,270,0.0,0.0,92,0.00,,,0.00,WUHU216HW,2013-02-04 16:27:00,
2013-02-04 08:32:00,44.5,42.3,30.48,West,270,0.0,0.0,92,0.00,,,0.00,WUHU216HW,2013-02-04 16:32:00,
2013-02-04 08:37:00,44.5,42.3,30.47,West,270,0.0,0.0,92,0.00,,,0.00,WUHU216HW,2013-02-04 16:37:00,
2013-02-04 08:42:00,44.5,42.3,30.48,West,270,0.0,0.0,92,0.00,,,0.00,WUHU216HW,2013-02-04 16:42:00,
2013-02-04 08:47:00,44.6,42.5,30.48,West,270,0.0,0.0,92,0.00,,,0.00,WUHU216HW,2013-02-04 16:47:00,
2013-02-04 08:52:00,44.6,42.5,30.48,West,270,0.2,0.2,92,0.00,,,0.00,WUHU216HW,2013-02-04 16:52:00,
2013-02-04 08:57:00,44.6,42.5,30.47,West,270,0.0,0.2,92,0.00,,,0.00,WUHU216HW,2013-02-04 16:57:00,
2013-02-04 09:02:00,44.6,42.5,30.47,West,270,0.0,0.0,92,0.00,,,0.00,WUHU216HW,2013-02-04 17:02:00,
2013-02-04 09:07:00,44.6,42.5,30.47,West,270,0.0,0.0,92,0.00,,,0.00,WUHU216HW,2013-02-04 17:07:00,
2013-02-04 09:12:00,44.8,42.7,30.47,NNW,338,0.4,0.4,92,0.00,,,0.00,WUHU216HW,2013-02-04 17:12:00,
2013-02-04 09:17:00,44.8,42.7,30.47,North,0,0.0,0.4,92,0.00,,,0.00,WUHU216HW,2013-02-04 17:17:00,
2013-02-04 09:22:00,45.0,42.8,30.47,NNE,23,0.4,0.9,92,0.00,,,0.00,WUHU216HW,2013-02-04 17:22:00,
2013-02-04 09:27:00,45.0,42.8,30.46,NNE,23,0.0,0.9,92,0.00,,,0.00,WUHU216HW,2013-02-04 17:27:00,
2013-02-04 09:32:00,45.2,43.0,30.46,SSW,203,0.0,0.2,92,0.00,,,0.00,WUHU216HW,2013-02-04 17:32:00,
2013-02-04 09:37:00,45.2,43.0,30.47,South,180,1.3,1.3,92,0.00,,,0.00,WUHU216HW,2013-02-04 17:37:00,
2013-02-04 09:42:00,45.4,42.9,30.47,NW,315,0.0,1.3,91,0.00,,,0.00,WUHU216HW,2013-02-04 17:42:00,
2013-02-04 09:47:00,45.5,43.1,30.46,SW,225,0.0,1.1,91,0.00,,,0.00,WUHU216HW,2013-02-04 17:47:00,
2013-02-04 09:52:00,45.5,43.1,30.46,SW,225,0.2,0.4,91,0.00,,,0.00,WUHU216HW,2013-02-04 17:52:00,
2013-02-04 09:57:00,45.7,43.3,30.47,SW,225,0.0,0.2,91,0.00,,,0.00,WUHU216HW,2013-02-04 17:57:00,
2013-02-04 10:02:00,45.7,43.3,30.48,SW,225,0.0,0.2,91,0.00,,,0.00,WUHU216HW,2013-02-04 18:02:00,
2013-02-04 10:07:00,45.7,43.3,30.48,SW,225,0.7,1.1,91,0.00,,,0.00,WUHU216HW,2013-02-04 18:07:00,
2013-02-04 10:12:00,45.9,43.5,30.48,SSW,203,0.0,1.1,91,0.00,,,0.00,WUHU216HW,2013-02-04 18:12:00,
2013-02-04 10:17:00,46.1,43.7,30.48,SSW,203,0.9,1.1,91,0.00,,,0.00,WUHU216HW,2013-02-04 18:17:00,
2013-02-04 10:22:00,46.1,43.7,30.47,NW,315,0.4,1.3,91,0.00,,,0.00,WUHU216HW,2013-02-04 18:22:00,
2013-02-04 10:27:00,46.1,43.7,30.47,NW,315,0.0,1.3,91,0.00,,,0.00,WUHU216HW,2013-02-04 18:27:00,
2013-02-04 10:32:00,46.1,43.7,30.48,WSW,248,0.0,0.7,91,0.00,,,0.00,WUHU216HW,2013-02-04 18:32:00,
2013-02-04 10:37:00,46.3,43.8,30.47,WSW,248,0.0,0.7,91,0.00,,,0.00,WUHU216HW,2013-02-04 18:37:00,
2013-02-04 10:42:00,46.4,44.0,30.47,West,270,0.0,0.4,91,0.00,,,0.00,WUHU216HW,2013-02-04 18:42:00,
2013-02-04 10:47:00,46.4,44.0,30.48,West,270,0.0,0.4,91,0.00,,,0.00,WUHU216HW,2013-02-04 18:47:00,
2013-02-04 10:52:00,46.4,44.0,30.48,WSW,248,0.0,0.0,91,0.00,,,0.00,WUHU216HW,2013-02-04 18:52:00,
2013-02-04 10:57:00,46.6,44.2,30.48,West,270,0.0,0.0,91,0.00,,,0.00,WUHU216HW,2013-02-04 18:57:00,
2013-02-04 11:02:00,46.6,44.2,30.48,West,270,0.0,0.7,91,0.00,,,0.00,WUHU216HW,2013-02-04 19:02:00,
2013-02-04 11:07:00,46.6,44.2,30.48,West,270,0.0,0.7,91,0.00,,,0.00,WUHU216HW,2013-02-04 19:07:00,
2013-02-04 11:12:00,46.8,44.1,30.47,SSW,203,0.9,1.1,90,0.00,,,0.00,WUHU216HW,2013-02-04 19:12:00,
2013-02-04 11:17:00,47.0,44.6,30.46,East,90,0.0,1.1,91,0.00,,,0.00,WUHU216HW,2013-02-04 19:17:00,
2013-02-04 11:22:00,47.2,44.5,30.46,SW,225,0.0,0.7,90,0.00,,,0.00,WUHU216HW,2013-02-04 19:22:00,
2013-02-04 11:27:00,47.2,44.5,30.46,WSW,248,1.6,1.6,90,0.00,,,0.00,WUHU216HW,2013-02-04 19:27:00,
2013-02-04 11:32:00,47.3,44.4,30.46,SW,225,1.1,1.8,89,0.00,,,0.00,WUHU216HW,2013-02-04 19:32:00,
2013-02-04 11:37:00,47.5,44.5,30.46,WSW,248,0.4,1.8,89,0.00,,,0.00,WUHU216HW,2013-02-04 19:37:00,
2013-02-04 11:42:00,47.7,44.6,30.46,South,180,1.1,1.1,89,0.00,,,0.00,WUHU216HW,2013-02-04 19:42:00,
2013-02-04 11:47:00,47.9,44.2,30.46,WSW,248,1.6,1.6,87,0.00,,,0.00,WUHU216HW,2013-02-04 19:47:00,
2013-02-04 11:52:00,47.9,44.6,30.45,South,180,0.0,1.6,88,0.00,,,0.00,WUHU216HW,2013-02-04 19:52:00,
2013-02-04 11:57:00,48.2,44.6,30.45,SSW,203,3.4,3.4,87,0.00,,,0.00,WUHU216HW,2013-02-04 19:57:00,
2013-02-04 12:02:00,48.2,44.3,30.45,South,180,0.9,3.4,86,0.00,,,0.00,WUHU216HW,2013-02-04 20:02:00,
2013-02-04 12:07:00,48.2,44.6,30.44,SW,225,0.4,2.2,87,0.00,,,0.00,WUHU216HW,2013-02-04 20:07:00,
2013-02-04 12:12:00,48.4,44.4,30.44,South,180,0.0,1.8,86,0.00,,,0.00,WUHU216HW,2013-02-04 20:12:00,
2013-02-04 12:17:00,48.4,44.1,30.44,South,180,0.4,2.2,85,0.00,,,0.00,WUHU216HW,2013-02-04 20:17:00,
2013-02-04 12:22:00,48.6,44.3,30.43,SW,225,2.2,2.2,85,0.00,,,0.00,WUHU216HW,2013-02-04 20:22:00,
2013-02-04 12:27:00,48.8,44.5,30.43,SW,225,1.1,2.2,85,0.00,,,0.00,WUHU216HW,2013-02-04 20:27:00,
2013-02-04 12:32:00,49.0,44.3,30.43,West,270,0.2,2.7,84,0.00,,,0.00,WUHU216HW,2013-02-04 20:32:00,
2013-02-04 12:37:00,49.1,44.8,30.43,South,180,1.6,2.7,85,0.00,,,0.00,WUHU216HW,2013-02-04 20:37:00,
2013-02-04 12:42:00,49.3,44.7,30.42,SSW,203,2.5,3.4,84,0.00,,,0.00,WUHU216HW,2013-02-04 20:42:00,
2013-02-04 12:47:00,49.5,43.8,30.42,WSW,248,1.1,3.4,81,0.00,,,0.00,WUHU216HW,2013-02-04 20:47:00,
2013-02-04 12:52:00,49.7,44.6,30.42,SSE,158,0.7,2.0,83,0.00,,,0.00,WUHU216HW,2013-02-04 20:52:00,
2013-02-04 12:57:00,49.7,44.6,30.41,SW,225,2.0,2.0,83,0.00,,,0.00,WUHU216HW,2013-02-04 20:57:00,
2013-02-04 13:02:00,49.9,44.8,30.41,South,180,1.1,2.0,83,0.00,,,0.00,WUHU216HW,2013-02-04 21:02:00,
2013-02-04 13:07:00,50.0,44.7,30.40,SSW,203,1.6,2.0,82,0.00,,,0.00,WUHU216HW,2013-02-04 21:07:00,
2013-02-04 13:12:00,50.0,44.7,30.40,SSW,203,1.1,2.0,82,0.00,,,0.00,WUHU216HW,2013-02-04 21:12:00,
2013-02-04 13:17:00,50.0,45.0,30.40,SSW,203,1.8,2.0,83,0.00,,,0.00,WUHU216HW,2013-02-04 21:17:00,
2013-02-04 13:22:00,50.0,45.0,30.39,SSW,203,0.0,1.8,83,0.00,,,0.00,WUHU216HW,2013-02-04 21:22:00,
2013-02-04 13:27:00,49.9,44.6,30.39,WSW,248,0.0,0.2,82,0.00,,,0.00,WUHU216HW,2013-02-04 21:27:00,
2013-02-04 13:32:00,49.9,44.8,30.39,SW,225,1.3,1.3,83,0.00,,,0.00,WUHU216HW,2013-02-04 21:32:00,
2013-02-04 13:37:00,49.9,44.8,30.39,WNW,293,0.0,1.6,83,0.00,,,0.00,WUHU216HW,2013-02-04 21:37:00,
2013-02-04 13:42:00,50.0,44.7,30.38,SW,225,0.0,2.5,82,0.00,,,0.00,WUHU216HW,2013-02-04 21:42:00,
2013-02-04 13:47:00,50.2,44.9,30.38,West,270,0.0,2.5,82,0.00,,,0.00,WUHU216HW,2013-02-04 21:47:00,
2013-02-04 13:52:00,50.4,45.1,30.37,SSW,203,1.1,1.8,82,0.00,,,0.00,WUHU216HW,2013-02-04 21:52:00,
2013-02-04 13:57:00,50.6,45.3,30.37,SW,225,0.2,1.8,82,0.00,,,0.00,WUHU216HW,2013-02-04 21:57:00,
2013-02-04 14:02:00,50.8,45.1,30.37,West,270,0.9,1.8,81,0.00,,,0.00,WUHU216HW,2013-02-04 22:02:00,
2013-02-04 14:07:00,50.8,45.1,30.37,SW,225,0.0,1.8,81,0.00,,,0.00,WUHU216HW,2013-02-04 22:07:00,
2013-02-04 14:12:00,50.8,45.1,30.37,NW,315,1.1,2.0,81,0.00,,,0.00,WUHU216HW,2013-02-04 22:12:00,
2013-02-04 14:17:00,50.8,45.1,30.37,SSW,203,1.8,2.0,81,0.00,,,0.00,WUHU216HW,2013-02-04 22:17:00,
2013-02-04 14:22:00,50.9,45.0,30.36,NW,315,1.6,1.8,80,0.00,,,0.00,WUHU216HW,2013-02-04 22:22:00,
2013-02-04 14:27:00,50.9,45.0,30.36,WSW,248,0.9,1.6,80,0.00,,,0.00,WUHU216HW,2013-02-04 22:27:00,
2013-02-04 14:32:00,51.1,45.5,30.35,WSW,248,0.0,1.1,81,0.00,,,0.00,WUHU216HW,2013-02-04 22:32:00,
2013-02-04 14:37:00,50.9,44.3,30.35,South,180,0.4,1.6,78,0.00,,,0.00,WUHU216HW,2013-02-04 22:37:00,
2013-02-04 14:42:00,50.9,45.0,30.35,SW,225,0.0,1.6,80,0.00,,,0.00,WUHU216HW,2013-02-04 22:42:00,
2013-02-04 14:47:00,50.9,45.0,30.34,SW,225,0.0,0.4,80,0.00,,,0.00,WUHU216HW,2013-02-04 22:47:00,
2013-02-04 14:52:00,50.9,44.6,30.34,NNW,338,0.4,0.9,79,0.00,,,0.00,WUHU216HW,2013-02-04 22:52:00,
2013-02-04 14:57:00,50.9,45.0,30.34,NNW,338,1.3,1.3,80,0.00,,,0.00,WUHU216HW,2013-02-04 22:57:00,
2013-02-04 15:02:00,50.9,44.3,30.34,NNW,338,0.7,1.3,78,0.00,,,0.00,WUHU216HW,2013-02-04 23:02:00,
2013-02-04 15:07:00,50.8,44.8,30.34,NNW,338,0.0,0.9,80,0.00,,,0.00,WUHU216HW,2013-02-04 23:07:00,
2013-02-04 15:12:00,50.9,45.0,30.34,NNW,338,0.0,0.9,80,0.00,,,0.00,WUHU216HW,2013-02-04 23:12:00,
2013-02-04 15:17:00,50.9,45.3,30.33,NNW,338,0.4,0.4,81,0.00,,,0.00,WUHU216HW,2013-02-04 23:17:00,
2013-02-04 15:22:00,50.8,44.8,30.33,NNW,338,0.0,0.4,80,0.00,,,0.00,WUHU216HW,2013-02-04 23:22:00,
2013-02-04 15:27:00,50.8,44.8,30.33,NW,315,0.0,0.4,80,0.00,,,0.00,WUHU216HW,2013-02-04 23:27:00,
2013-02-04 15:32:00,50.8,45.1,30.33,NW,315,0.0,0.4,81,0.00,,,0.00,WUHU216HW,2013-02-04 23:32:00,
2013-02-04 15:37:00,50.8,45.1,30.32,NW,315,0.0,0.0,81,0.00,,,0.00,WUHU216HW,2013-02-04 23:37:00,
2013-02-04 15:42:00,50.8,45.5,30.32,NW,315,0.0,0.0,82,0.00,,,0.00,WUHU216HW,2013-02-04 23:42:00,
2013-02-04 15:47:00,50.6,44.9,30.32,NNW,338,0.4,1.1,81,0.00,,,0.00,WUHU216HW,2013-02-04 23:47:00,
2013-02-04 15:52:00,50.4,45.1,30.31,NNW,338,0.2,2.5,82,0.00,,,0.00,WUHU216HW,2013-02-04 23:52:00,
2013-02-04 15:57:00,50.4,45.1,30.32,North,0,0.0,2.5,82,0.00,,,0.00,WUHU216HW,2013-02-04 23:57:00,
2013-02-04 16:02:00,50.2,44.9,30.31,North,0,0.0,1.6,82,0.00,,,0.00,WUHU216HW,2013-02-05 00:02:00,
2013-02-04 16:07:00,50.2,44.9,30.31,North,0,0.2,1.1,82,0.00,,,0.00,WUHU216HW,2013-02-05 00:07:00,
2013-02-04 16:12:00,50.0,45.0,30.31,NNW,338,0.4,0.4,83,0.00,,,0.00,WUHU216HW,2013-02-05 00:12:00,
2013-02-04 16:17:00,50.0,45.0,30.31,NW,315,1.1,1.3,83,0.00,,,0.00,WUHU216HW,2013-02-05 00:17:00,
2013-02-04 16:22:00,49.7,44.6,30.31,North,0,0.0,1.3,83,0.00,,,0.00,WUHU216HW,2013-02-05 00:22:00,
2013-02-04 16:27:00,49.7,44.6,30.31,North,0,0.0,0.9,83,0.00,,,0.00,WUHU216HW,2013-02-05 00:27:00,
2013-02-04 16:32:00,49.5,44.8,30.32,North,0,0.0,0.2,84,0.00,,,0.00,WUHU216HW,2013-02-05 00:32:00,
2013-02-04 16:37:00,49.3,44.3,30.32,North,0,0.0,0.0,83,0.00,,,0.00,WUHU216HW,2013-02-05 00:37:00,
2013-02-04 16:42:00,49.3,44.3,30.32,North,0,0.0,0.0,83,0.00,,,0.00,WUHU216HW,2013-02-05 00:42:00,
2013-02-04 16:47:00,49.1,44.5,30.32,North,0,0.0,0.0,84,0.00,,,0.00,WUHU216HW,2013-02-05 00:47:00,
2013-02-04 16:52:00,49.1,44.5,30.32,North,0,0.0,0.0,84,0.00,,,0.00,WUHU216HW,2013-02-05 00:52:00,
2013-02-04 16:57:00,49.0,44.3,30.31,North,0,0.2,0.4,84,0.00,,,0.00,WUHU216HW,2013-02-05 00:57:00,
2013-02-04 17:02:00,48.6,43.9,30.31,North,0,0.0,0.4,84,0.00,,,0.00,WUHU216HW,2013-02-05 01:02:00,
2013-02-04 17:07:00,48.6,44.3,30.31,North,0,0.0,0.0,85,0.00,,,0.00,WUHU216HW,2013-02-05 01:07:00,
2013-02-04 17:12:00,48.6,44.3,30.32,North,0,0.0,0.0,85,0.00,,,0.00,WUHU216HW,2013-02-05 01:12:00,
2013-02-04 17:17:00,48.4,44.1,30.32,North,0,0.0,0.0,85,0.00,,,0.00,WUHU216HW,2013-02-05 01:17:00,
2013-02-04 17:22:00,48.2,43.9,30.32,North,0,0.0,0.0,85,0.00,,,0.00,WUHU216HW,2013-02-05 01:22:00,
2013-02-04 17:27:00,48.2,43.9,30.32,North,0,0.0,0.0,85,0.00,,,0.00,WUHU216HW,2013-02-05 01:27:00,
2013-02-04 17:32:00,48.1,43.7,30.32,North,0,0.0,0.0,85,0.00,,,0.00,WUHU216HW,2013-02-05 01:32:00,
2013-02-04 17:37:00,47.9,43.6,30.31,North,0,0.0,0.0,85,0.00,,,0.00,WUHU216HW,2013-02-05 01:37:00,
2013-02-04 17:42:00,47.9,43.9,30.31,North,0,0.0,0.0,86,0.00,,,0.00,WUHU216HW,2013-02-05 01:42:00,
2013-02-04 17:47:00,47.7,43.8,30.31,North,0,0.0,0.0,86,0.00,,,0.00,WUHU216HW,2013-02-05 01:47:00,
2013-02-04 17:52:00,47.5,43.6,30.31,North,0,0.0,0.0,86,0.00,,,0.00,WUHU216HW,2013-02-05 01:52:00,
2013-02-04 17:57:00,47.5,43.6,30.31,North,0,0.0,0.0,86,0.00,,,0.00,WUHU216HW,2013-02-05 01:57:00,
2013-02-04 18:02:00,47.5,43.6,30.31,North,0,0.0,0.0,86,0.00,,,0.00,WUHU216HW,2013-02-05 02:02:00,
2013-02-04 18:07:00,47.5,43.8,30.31,North,0,0.0,0.0,87,0.00,,,0.00,WUHU216HW,2013-02-05 02:07:00,
2013-02-04 18:12:00,47.3,43.7,30.31,North,0,0.0,0.0,87,0.00,,,0.00,WUHU216HW,2013-02-05 02:12:00,
2013-02-04 18:17:00,47.3,43.7,30.31,North,0,0.0,0.0,87,0.00,,,0.00,WUHU216HW,2013-02-05 02:17:00,
2013-02-04 18:22:00,47.3,43.7,30.31,North,0,0.0,0.0,87,0.00,,,0.00,WUHU216HW,2013-02-05 02:22:00,
2013-02-04 18:27:00,47.3,43.7,30.31,North,0,0.0,0.0,87,0.00,,,0.00,WUHU216HW,2013-02-05 02:27:00,
2013-02-04 18:32:00,47.3,43.7,30.31,North,0,0.0,0.0,87,0.00,,,0.00,WUHU216HW,2013-02-05 02:32:00,
2013-02-04 18:37:00,47.3,43.7,30.31,NW,315,0.0,0.0,87,0.00,,,0.00,WUHU216HW,2013-02-05 02:37:00,
2013-02-04 18:42:00,47.3,43.7,30.30,North,0,0.0,0.0,87,0.00,,,0.00,WUHU216HW,2013-02-05 02:42:00,
2013-02-04 18:47:00,47.3,43.7,30.30,North,0,0.0,0.0,87,0.00,,,0.00,WUHU216HW,2013-02-05 02:47:00,
2013-02-04 18:52:00,47.3,43.7,30.30,North,0,0.0,0.0,87,0.00,,,0.00,WUHU216HW,2013-02-05 02:52:00,
2013-02-04 18:57:00,47.3,43.7,30.29,NNE,23,0.0,0.2,87,0.00,,,0.00,WUHU216HW,2013-02-05 02:57:00,
2013-02-04 19:02:00,47.2,43.8,30.27,NNE,23,0.0,0.2,88,0.00,,,0.00,WUHU216HW,2013-02-05 03:02:00,
2013-02-04 19:07:00,47.2,43.8,30.27,NNW,338,0.0,0.4,88,0.00,,,0.00,WUHU216HW,2013-02-05 03:07:00,
2013-02-04 19:12:00,47.2,43.8,30.27,NW,315,0.0,0.4,88,0.00,,,0.00,WUHU216HW,2013-02-05 03:12:00,
2013-02-04 19:17:00,47.2,43.8,30.26,NNW,338,0.9,1.3,88,0.00,,,0.00,WUHU216HW,2013-02-05 03:17:00,
2013-02-04 19:22:00,47.0,43.7,30.26,SW,225,0.7,1.3,88,0.00,,,0.00,WUHU216HW,2013-02-05 03:22:00,
2013-02-04 19:27:00,47.0,43.7,30.25,SW,225,0.2,0.7,88,0.00,,,0.00,WUHU216HW,2013-02-05 03:27:00,
2013-02-04 19:32:00,47.0,43.7,30.24,NNW,338,0.0,0.9,88,0.00,,,0.00,WUHU216HW,2013-02-05 03:32:00,
2013-02-04 19:37:00,47.0,43.7,30.24,West,270,0.4,0.9,88,0.00,,,0.00,WUHU216HW,2013-02-05 03:37:00,
2013-02-04 19:42:00,47.0,43.7,30.24,WSW,248,0.4,0.7,88,0.00,,,0.00,WUHU216HW,2013-02-05 03:42:00,
2013-02-04 19:47:00,46.8,43.5,30.23,WSW,248,0.0,0.4,88,0.00,,,0.00,WUHU216HW,2013-02-05 03:47:00,
2013-02-04 19:52:00,46.8,43.5,30.23,WSW,248,0.0,0.0,88,0.00,,,0.00,WUHU216HW,2013-02-05 03:52:00,
2013-02-04 19:57:00,46.8,43.5,30.23,WNW,293,0.4,0.4,88,0.00,,,0.00,WUHU216HW,2013-02-05 03:57:00,
2013-02-04 20:02:00,46.8,43.8,30.22,SW,225,0.0,0.4,89,0.00,,,0.00,WUHU216HW,2013-02-05 04:02:00,
2013-02-04 20:07:00,46.8,43.5,30.22,North,0,0.7,0.7,88,0.00,,,0.00,WUHU216HW,2013-02-05 04:07:00,
2013-02-04 20:12:00,47.0,44.0,30.22,WSW,248,0.0,0.9,89,0.00,,,0.00,WUHU216HW,2013-02-05 04:12:00,
2013-02-04 20:17:00,47.0,44.0,30.21,West,270,0.0,0.9,89,0.00,,,0.00,WUHU216HW,2013-02-05 04:17:00,
2013-02-04 20:22:00,47.0,44.0,30.21,West,270,0.0,0.0,89,0.00,,,0.00,WUHU216HW,2013-02-05 04:22:00,
2013-02-04 20:27:00,47.0,44.0,30.21,WSW,248,0.0,2.0,89,0.00,,,0.00,WUHU216HW,2013-02-05 04:27:00,
2013-02-04 20:32:00,47.0,44.0,30.20,NNW,338,0.0,2.0,89,0.00,,,0.00,WUHU216HW,2013-02-05 04:32:00,
2013-02-04 20:37:00,46.8,43.8,30.20,South,180,0.0,0.4,89,0.00,,,0.00,WUHU216HW,2013-02-05 04:37:00,
2013-02-04 20:42:00,46.8,43.8,30.20,NW,315,0.2,0.4,89,0.00,,,0.00,WUHU216HW,2013-02-05 04:42:00,
2013-02-04 20:47:00,46.8,43.8,30.19,NW,315,0.4,0.7,89,0.00,,,0.00,WUHU216HW,2013-02-05 04:47:00,
2013-02-04 20:52:00,46.8,43.8,30.19,NNW,338,0.7,2.2,89,0.00,,,0.00,WUHU216HW,2013-02-05 04:52:00,
2013-02-04 20:57:00,46.8,43.8,30.19,WNW,293,1.1,2.2,89,0.00,,,0.00,WUHU216HW,2013-02-05 04:57:00,
2013-02-04 21:00:00,46.8,43.8,30.19,WNW,293,0.0,1.1,89,0.00,,,0.00,WUHU216HW,2013-02-05 05:00:00,
2013-02-04 21:05:00,46.8,43.8,30.20,WNW,293,0.0,1.1,89,0.00,,,0.00,WUHU216HW,2013-02-05 05:05:00,
2013-02-04 21:10:00,46.8,43.8,30.20,West,270,0.0,0.4,89,0.00,,,0.00,WUHU216HW,2013-02-05 05:10:00,
2013-02-04 21:15:00,46.8,43.8,30.20,NW,315,0.0,0.4,89,0.00,,,0.00,WUHU216HW,2013-02-05 05:15:00,
2013-02-04 21:20:00,46.8,43.8,30.21,NW,315,0.0,0.4,89,0.00,,,0.00,WUHU216HW,2013-02-05 05:20:00,
2013-02-04 21:25:00,47.0,44.0,30.21,NNE,23,1.1,1.1,89,0.00,,,0.00,WUHU216HW,2013-02-05 05:25:00,
2013-02-04 21:30:00,46.8,43.8,30.20,NNE,23,0.0,1.1,89,0.00,,,0.00,WUHU216HW,2013-02-05 05:30:00,
2013-02-04 21:35:00,46.6,43.9,30.19,NNE,23,0.0,1.8,90,0.00,,,0.00,WUHU216HW,2013-02-05 05:35:00,
2013-02-04 21:40:00,46.4,43.7,30.20,NNE,23,0.0,1.8,90,0.00,,,0.00,WUHU216HW,2013-02-05 05:40:00,
2013-02-04 21:45:00,46.4,43.7,30.20,North,0,0.0,0.9,90,0.00,,,0.00,WUHU216HW,2013-02-05 05:45:00,
2013-02-04 21:50:00,46.4,43.7,30.20,North,0,0.0,0.9,90,0.00,,,0.00,WUHU216HW,2013-02-05 05:50:00,
2013-02-04 21:55:00,46.4,43.7,30.21,North,0,0.0,0.0,90,0.00,,,0.00,WUHU216HW,2013-02-05 05:55:00,
2013-02-04 22:00:00,46.4,43.7,30.21,North,0,0.0,0.0,90,0.00,,,0.00,WUHU216HW,2013-02-05 06:00:00,
2013-02-04 22:05:00,46.4,43.7,30.21,North,0,0.0,0.0,90,0.00,,,0.00,WUHU216HW,2013-02-05 06:05:00,
2013-02-04 22:10:00,46.6,43.9,30.22,North,0,0.0,0.0,90,0.00,,,0.00,WUHU216HW,2013-02-05 06:10:00,
2013-02-04 22:15:00,46.6,43.9,30.22,NE,45,0.0,0.0,90,0.00,,,0.00,WUHU216HW,2013-02-05 06:15:00,
2013-02-04 22:20:00,46.6,43.9,30.22,NE,45,0.0,0.0,90,0.00,,,0.00,WUHU216HW,2013-02-05 06:20:00,
2013-02-04 22:25:00,46.4,43.7,30.21,NE,45,0.0,0.0,90,0.00,,,0.00,WUHU216HW,2013-02-05 06:25:00,
2013-02-04 22:30:00,46.4,43.7,30.21,NE,45,0.0,0.0,90,0.00,,,0.00,WUHU216HW,2013-02-05 06:30:00,
2013-02-04 22:35:00,46.4,43.7,30.20,NE,45,0.2,0.2,90,0.00,,,0.00,WUHU216HW,2013-02-05 06:35:00,
2013-02-04 22:40:00,46.3,43.6,30.20,NE,45,0.0,0.2,90,0.00,,,0.00,WUHU216HW,2013-02-05 06:40:00,
2013-02-04 22:45:00,46.3,43.6,30.20,NE,45,0.0,0.4,90,0.00,,,0.00,WUHU216HW,2013-02-05 06:45:00,
2013-02-04 22:50:00,46.3,43.6,30.20,NE,45,0.0,0.4,90,0.00,,,0.00,WUHU216HW,2013-02-05 06:50:00,
2013-02-04 22:55:00,46.3,43.6,30.20,NE,45,0.0,0.0,90,0.00,,,0.00,WUHU216HW,2013-02-05 06:55:00,
2013-02-04 23:00:00,46.3,43.6,30.20,South,180,0.0,0.0,90,0.00,,,0.00,WUHU216HW,2013-02-05 07:00:00,
2013-02-04 23:05:00,46.3,43.6,30.20,SSW,203,0.0,0.0,90,0.00,,,0.00,WUHU216HW,2013-02-05 07:05:00,
2013-02-04 23:10:00,46.3,43.6,30.20,WSW,248,0.9,0.9,90,0.00,,,0.00,WUHU216HW,2013-02-05 07:10:00,
2013-02-04 23:15:00,46.3,43.6,30.20,SW,225,0.0,0.9,90,0.00,,,0.00,WUHU216HW,2013-02-05 07:15:00,
2013-02-04 23:20:00,46.3,43.6,30.20,SW,225,0.0,0.9,90,0.00,,,0.00,WUHU216HW,2013-02-05 07:20:00,
2013-02-04 23:25:00,46.3,43.6,30.20,WSW,248,0.0,0.7,90,0.00,,,0.00,WUHU216HW,2013-02-05 07:25:00,
2013-02-04 23:30:00,46.3,43.6,30.20,NW,315,0.7,0.7,90,0.00,,,0.00,WUHU216HW,2013-02-05 07:30:00,
2013-02-04 23:35:00,46.1,43.4,30.20,NW,315,0.0,0.7,90,0.00,,,0.00,WUHU216HW,2013-02-05 07:35:00,
2013-02-04 23:40:00,46.3,43.6,30.20,North,0,0.0,0.4,90,0.00,,,0.00,WUHU216HW,2013-02-05 07:40:00,
2013-02-04 23:45:00,46.3,43.6,30.20,South,180,0.0,0.4,90,0.00,,,0.00,WUHU216HW,2013-02-05 07:45:00,
2013-02-04 23:50:00,46.3,43.6,30.20,South,180,0.7,0.7,90,0.00,,,0.00,WUHU216HW,2013-02-05 07:50:00,
2013-02-04 23:55:00,46.3,43.6,30.21,SSE,158,0.7,0.7,90,0.00,,,0.00,WUHU216HW,2013-02-05 07:55:00,